#timestamp,LO_Frequency,Hit,StdDev 
1591034415.2,286047000.3,P
1591034435.0,286047002.2,N
1591034435.9,286047002.2,N
1591034455.8,286047002.5,N
1591034475.6,286047001.9,N
1591034495.4,286047000.0,N
1591034515.3,286047000.6,N
1591034535.1,286047000.6,N
1591034555.9,286047003.7,Y
1591034575.7,286047003.7,P
1591034595.5,286047004.2,P
1591034615.4,286047003.1,N
1591034635.2,286047004.0,Y
1591034655.0,286047002.8,P
1591034655.9,286047002.8,P
1591034675.8,286047002.0,P
1591034695.6,286047002.2,Y
1591034715.5,286046998.3,P
1591034735.3,286046998.4,N
1591034755.1,286046998.4,N
1591034775.9,286046996.8,N
1591034795.7,286046997.2,N
1591034815.6,286046994.6,N
1591034835.4,286046993.5,N
1591034855.2,286046995.8,N
1591034875.1,286046996.0,N
1591034876.0,286046996.0,N
1591034895.8,286046995.5,N
1591034915.6,286046995.7,N
1591034935.5,286047011.9,Y
1591034955.3,286047000.5,P
1591034975.2,286047001.1,N
1591034995.0,286046998.2,N
1591034995.9,286046998.2,N
1591035015.7,286047000.5,N
1591035035.6,286046999.9,N
1591035055.4,286047002.5,N
1591035075.3,286046999.4,N
1591035095.1,286046998.3,N
1591035096.0,286046998.3,N
1591035115.8,286046998.3,N
1591035135.7,286047001.2,N
1591035155.5,286046999.5,N
1591035175.3,286046998.1,N
1591035195.2,286046999.4,N
1591035215.0,286047000.3,N
1591035215.9,286047000.3,N
1591035235.8,286046999.9,N
1591035255.6,286046998.2,N
1591035275.4,286047001.5,N
1591035295.3,286047004.0,N
1591035315.1,286047002.7,N
1591035335.9,286047002.7,N
1591035355.7,286047002.5,N
1591035375.5,286047002.2,N
1591035395.4,286047001.2,N
1591035415.2,286046999.4,N
1591035435.1,286046998.3,N
1591035436.0,286046998.3,N
1591035455.8,286047000.7,N
1591035475.6,286047002.1,N
1591035495.5,286047002.1,N
1591035515.3,286047004.0,N
1591035535.1,286047002.1,N
1591035555.9,286047003.6,N
1591035575.7,286047004.3,N
1591035595.6,286047004.0,N
1591035615.4,286047005.3,N
1591035635.2,286047003.3,N
1591035655.1,286047004.0,N
1591035656.0,286047004.0,N
1591035675.8,286047003.7,N
1591035695.7,286047004.4,N
1591035715.5,286047000.0,N
1591035735.3,286047001.3,N
1591035755.2,286047001.9,N
1591035775.0,286047002.5,N
1591035775.9,286047002.5,N
1591035795.7,286047002.5,N
1591035815.6,286047004.1,N
1591035835.4,286047003.5,N
1591035855.3,286047003.6,N
1591035875.1,286046999.8,N
1591035895.8,286047004.1,N
1591035915.7,286047004.7,N
1591035935.5,286047003.8,N
1591035955.4,286047003.9,N
1591035975.2,286047003.2,N
1591035995.0,286047004.4,N
1591035995.9,286047004.4,Y
1591036015.8,286047000.6,P
1591036035.6,286047002.6,N
1591036055.5,286047000.3,N
1591036075.3,286047000.8,N
1591036095.1,286046999.6,N
1591036115.9,286046999.8,N
1591036135.7,286046998.2,N
1591036155.5,286047000.4,N
1591036175.4,286047000.4,N
1591036195.2,286047000.2,N
1591036215.1,286047000.4,N
1591036216.0,286047000.4,N
1591036235.8,286046999.8,N
1591036255.6,286047001.8,N
1591036275.5,286047002.4,N
1591036295.3,286047001.4,N
1591036315.2,286047001.7,N
1591036335.9,286047000.6,N
1591036355.7,286047000.1,N
1591036375.6,286047000.7,N
1591036395.4,286047000.7,N
1591036415.2,286047000.7,N
1591036435.1,286047000.4,N
1591036436.0,286047000.4,N
1591036455.8,286046996.6,Y
1591036475.7,286046999.1,P
1591036495.5,286047001.1,N
1591036515.3,286047000.9,N
1591036535.2,286047000.2,N
1591036555.0,286047002.8,Y
1591036555.9,286047002.8,P
1591036575.8,286047000.1,N
1591036595.6,286047001.5,N
1591036615.4,286047001.6,N
1591036635.3,286047003.1,Y
1591036655.1,286047002.3,P
1591036675.9,286047001.7,P
1591036695.7,286047002.2,P
1591036715.5,286047002.1,Y
1591036735.4,286047000.4,P
1591036755.2,286046998.1,N
1591036775.1,286046998.5,N
1591036776.0,286046998.5,N
1591036795.8,286047000.6,N
1591036815.6,286046999.9,N
1591036835.5,286047002.7,N
1591036855.3,286047002.6,N
1591036875.2,286047000.0,N
1591036895.9,286046998.6,N
1591036915.7,286046994.9,Y
1591036935.6,286046997.2,P
1591036955.4,286047000.7,N
1591036975.3,286047000.5,N
1591036995.1,286047001.0,N
1591036996.0,286047001.0,N
1591037015.8,286047002.5,N
1591037035.7,286047002.6,N
1591037055.5,286047000.5,N
1591037075.4,286047000.1,N
1591037095.2,286047000.5,N
1591037115.0,286047001.1,N
1591037115.9,286047001.1,N
1591037135.8,286046998.2,N
1591037155.6,286047000.6,N
1591037175.5,286046997.0,N
1591037195.3,286046995.2,Y
1591037215.1,286046997.7,P
1591037235.9,286046996.5,N
1591037255.7,286046999.2,N
1591037275.6,286046996.8,N
1591037295.4,286046999.0,N
1591037315.2,286046996.5,N
1591037335.1,286046998.4,N
1591037336.0,286046998.4,N
1591037355.8,286046998.2,N
1591037375.6,286047000.9,N
1591037395.5,286047000.9,N
1591037415.3,286047000.6,N
1591037435.2,286047002.6,N
1591037455.9,286047001.7,N
1591037475.7,286047002.3,N
1591037495.6,286046999.7,N
1591037515.4,286047000.4,N
1591037535.3,286046999.9,N
1591037555.1,286047003.7,N
1591037556.0,286047003.7,N
1591037575.8,286047003.2,N
1591037595.7,286047002.9,N
1591037615.5,286047004.0,N
1591037635.3,286047003.7,N
1591037655.2,286047004.1,N
1591037675.0,286047001.9,N
1591037675.9,286047001.9,N
1591037695.8,286047005.9,N
1591037715.6,286047005.9,N
1591037735.4,286047003.8,N
1591037755.3,286047004.4,N
1591037775.1,286047003.9,N
1591037795.9,286047001.9,N
1591037815.7,286047004.3,N
1591037835.5,286047003.6,N
1591037855.4,286047001.4,N
1591037875.2,286046999.8,N
1591037895.0,286047002.7,N
1591037895.9,286047002.7,N
1591037915.8,286047002.1,N
1591037935.6,286047002.4,N
1591037955.5,286047000.1,N
1591037975.3,286047000.1,N
1591037995.1,286047000.6,N
